Regional Weather Roundup
Issued by NWS

Home | Current Version | Previous Version | Text Only | Print | Product List | Glossary Off
Versions: 1 2 3 4 5 6 7 8 9 10 11 12 13 14 15 16 17 18 19 20 21 22 23 24 25 26 27

000
ASUS45 KBOU 301207
RWRCO

WEATHER ROUNDUP FOR COLORADO
NATIONAL WEATHER SERVICE DENVER/BOULDER CO
600 AM MDT TUE AUG 30 2016

NOTE: "FAIR" INDICATES FEW OR NO CLOUDS BELOW 12000 FEET WITH NO
SIGNIFICANT WEATHER AND/OR OBSTRUCTIONS TO VISIBILITY.

COZ001>005-013-030-031-301300-
...NORTHWEST COLORADO...

CITY           SKY/WX    TMP DP  RH WIND       PRES   REMARKS
CRAIG          FAIR      48  37  65 CALM      30.37R
HAYDEN         FAIR      50  36  57 E13       30.38S
MEEKER         FAIR      43  38  82 CALM      30.37S
MOUNT WERNER   NOT AVBL
STEAMBOAT SPGS FAIR      41  36  80 CALM      30.40S
WALDEN         FAIR      34  30  86 SE6       30.50F WCI  29
$$

COZ006>008-011-301300-
...WEST CENTRAL VALLEYS...

CITY           SKY/WX    TMP DP  RH WIND       PRES   REMARKS
GRAND JUNCTION FAIR      57  43  59 SE12      30.27R
MONTROSE       FAIR      51  43  74 SE7       30.35S
EAGLE          FAIR      43  39  87 CALM      30.45S
RIFLE          FAIR      49  43  80 CALM      30.34R
DELTA          FAIR      53  42  65 CALM      30.32R
NUCLA          FAIR     N/A N/A N/A SE3       30.37R
$$

COZ017>023-064>068-301300-
...SOUTHWEST COLORADO...

CITY           SKY/WX    TMP DP  RH WIND       PRES   REMARKS
DURANGO        CLOUDY    50  44  80 NE6       30.39S
CORTEZ         FAIR      51  46  83 CALM      30.32R
PAGOSA SPRINGS MOCLDY    49  41  75 CALM      30.45S
TELLURIDE      FAIR      47  39  72 E5        30.53S
WOLF CREEK PAS CLOUDY    39  34  81 MISG      30.69S
$$

COZ009-010-012-014-032>034-037-058>063-301300-
...CENTRAL COLORADO...

CITY           SKY/WX    TMP DP  RH WIND       PRES   REMARKS
ASPEN          FAIR      40  37  89 S5        30.45R
BUENA VISTA    FAIR      41  39  93 CALM      30.51S
COPPER MTN     FAIR      43  32  65 SW6       30.69S
BERTHOUD PASS  FAIR      34  21  60 E8        30.72S WCI  27
COTTONWOOD PAS FAIR      48  36  61 SW6       30.59S
GUNNISON       FAIR      41  37  87 CALM      30.51S
KREMMLING      FAIR      36  32  87 CALM      30.49S
LEADVILLE      FAIR      34  32  92 CALM      30.57F
MONARCH PASS   FAIR      36  34  93 E8        30.78S
SALIDA         FAIR      43  40  91 CALM      30.57S
SUNLIGHT       FAIR      43  36  75 W5        30.63S
WILKERSON PASS CLOUDY    41  34  75 CALM      30.68F
$$

COZ069>075-301300-
...SAN LUIS VALLEY/SANGRE DE CRISTO MOUNTAINS...

CITY           SKY/WX    TMP DP  RH WIND       PRES   REMARKS
ALAMOSA        FAIR      41  38  89 CALM      30.46R
LA VETA PASS   MOCLDY    43  37  81 NE5       30.58S
SAGUACHE       FAIR      45  41  87 NW9       30.48S
$$

COZ035-036-038>040-301300-
...NORTHERN COLORADO FRONT RANGE...

CITY           SKY/WX    TMP DP  RH WIND       PRES   REMARKS
DENVER INTL AP MOCLDY    57  47  69 SW8       30.34R
DMNS CITY PARK   N/A     56  48  75 SE7       30.34S
AURORA         MOCLDY    55  47  74 S7        30.36R
FRONT RANGE AP NOT AVBL
ERIE MUNI ARPT FAIR      52  49  87 S5        30.32F
BOULDER MUN AP FAIR      55  48  76 SW3       30.33F
CENTENNIAL     MOCLDY    54  47  77 SE3       30.36S
BROOMFIELD     FAIR      55  45  67 W3        30.36S
FORT COLLINS   FAIR      57  52  82 SE3       30.32R
LONGMONT       FAIR      56  51  84 CALM      30.33F
$$

COZ041-046-047-076>085-087-088-301300-
...PIKES PEAK/PALMER DIVIDE AND SOUTHERN FOOTHILLS...

CITY           SKY/WX    TMP DP  RH WIND       PRES   REMARKS
COLO. SPRINGS  FAIR      53  46  77 NW3       30.40S
A. F. ACADEMY  MOCLDY    49  47  95 N5        30.40S
SCHRIEVER AFB  NOT AVBL
ELLICOTT       NOT AVBL
FALCON         FAIR      50  44  79 NW6       30.43S
FORT CARSON    CLOUDY    54  47  79 NW6       30.36F
LIMON          FAIR      48  47  96 N6        30.34S
MONUMENT HILL  CLOUDY    50  45  81 S5        30.44S
TRINIDAD       FAIR      54  49  83 W10       30.36F
$$

COZ042>045-048>051-090-091-301300-
...NORTHEAST COLORADO...

CITY           SKY/WX    TMP DP  RH WIND       PRES   REMARKS
GREELEY ARPT   FAIR      55  54  94 N5        30.32R
AKRON          FAIR      54  50  86 W7        30.29S
BURLINGTON     FOG       61  59  93 W7        30.28S VSB 1/4
WRAY           NOT AVBL
STERLING       FAIR      54  54 100 CALM      30.26S
HOLYOKE        FAIR      61  59  94 CALM      30.26S
FORT MORGAN    FAIR      55  53  93 W7        30.29F
$$

COZ086-089-092>099-301300-
...SOUTHEAST COLORADO...

CITY           SKY/WX    TMP DP  RH WIND       PRES   REMARKS
PUEBLO         MOCLDY    60  52  74 W5        30.31S
LA JUNTA       MOCLDY    59  55  87 W6        30.28S
LAMAR          CLOUDY    58  57  97 CALM      30.24R
SPRINGFIELD      N/A     60  57  89 CALM      30.28R
$$




USA.gov is the U.S. government's official web portal to all federal, state and local government web resources and services.